Weather History for Danbury, CT

Change the Weather History Date:

Saturday, February 16, 2013

  Actual Average Record
Temperature  
Mean Temperature 32 °F -  
Max Temperature 36 °F 38 °F 77 °F (1954)
Min Temperature 28 °F 20 °F 2 °F (1963)
Degree Days  
Heating Degree Days 33    
Moisture  
Dew Point 25 °F    
Average Humidity 77    
Maximum Humidity 100    
Minimum Humidity 50    
Precipitation  
Precipitation 0.03 in - - ()
Sea Level Pressure  
Sea Level Pressure 29.92 in    
Wind  
Wind Speed 6 mph (North)    
Max Wind Speed 12 mph    
Max Gust Speed 20 mph    
Visibility 7 miles    
Events Snow    
Averages and records for this station are not official NWS values.
T = Trace of Precipitation, MM = Missing Value Source: NWS Daily Summary

Daily Weather History Graph

Daily Weather History Graph

Search for Another Location

Airport:

Trip Planner

Search our weather history database for the weather conditions in past years. The results will help you decide how hot, cold, wet, or windy it might be!

Date:

Astronomy

Feb. 16, 2013 Rise Set
Actual Time 6:47 AM EST 5:29 PM EST
Civil Twilight 6:18 AM EST 5:57 PM EST
Nautical Twilight 5:46 AM EST 6:29 PM EST
Astronomical Twilight 5:14 AM EST 7:02 PM EST
Moon 9:53 AM EST No Moon Set
Length of Visible Light 11h 38m
Length of Day
10h 42m
Waxing Crescent, 39% of the Moon is Illuminated
Feb 16
Waxing Crescent
Feb 17
First Quarter
Feb 25
Full
Mar 4
Last Quarter
Mar 11
New

Hourly Weather History & Observations

Time (EST) Temp. Windchill Dew Point Humidity Pressure Visibility Wind Dir Wind Speed Gust Speed Precip Events Conditions
12:53 AM 36.0 °F 29.6 °F 32.0 °F 86% 29.97 in 9.0 mi WNW 8.1 mph - 0.00 in   Overcast
1:09 AM 35.6 °F 29.9 °F 32.0 °F 87% 29.96 in 5.0 mi NW 6.9 mph - 0.00 in Snow Light Snow
1:27 AM 33.8 °F 29.6 °F 32.0 °F 93% 29.96 in 3.0 mi NW 4.6 mph - 0.01 in Snow Light Snow
1:34 AM 33.8 °F 30.8 °F 32.0 °F 93% 29.96 in 2.5 mi NW 3.5 mph - 0.01 in Snow Light Snow
1:53 AM 33.1 °F 27.7 °F 32.0 °F 96% 29.98 in 1.8 mi NW 5.8 mph - 0.01 in Snow Light Snow
2:18 AM 33.8 °F 28.6 °F 30.2 °F 87% 29.96 in 1.2 mi NNE 5.8 mph - 0.01 in Snow Light Snow
2:40 AM 33.8 °F 28.6 °F 30.2 °F 87% 29.95 in 2.0 mi North 5.8 mph - 0.01 in Snow Light Snow
2:48 AM 33.8 °F 27.7 °F 30.2 °F 87% 29.95 in 2.5 mi North 6.9 mph - 0.01 in Snow Light Snow
2:51 AM 33.8 °F 29.6 °F 30.2 °F 87% 29.95 in 3.0 mi North 4.6 mph - 0.01 in Snow Light Snow
2:53 AM 33.1 °F 28.7 °F 30.0 °F 89% 29.95 in 3.0 mi North 4.6 mph - 0.01 in Snow Light Snow
3:00 AM 33.8 °F 29.6 °F 30.2 °F 87% 29.95 in 4.0 mi North 4.6 mph - 0.00 in Snow Light Snow
3:22 AM 32.0 °F 28.7 °F 30.2 °F 93% 29.94 in 2.0 mi Variable 3.5 mph - 0.00 in Snow Light Snow
3:31 AM 32.0 °F 27.5 °F 30.2 °F 93% 29.94 in 1.8 mi NNE 4.6 mph - 0.00 in Snow Light Snow
3:46 AM 32.0 °F 28.7 °F 30.2 °F 93% 29.94 in 2.0 mi North 3.5 mph - 0.00 in Snow Light Snow
3:53 AM 32.0 °F 27.5 °F 30.0 °F 92% 29.94 in 2.0 mi NNE 4.6 mph - 0.00 in Snow Light Snow
4:13 AM 32.0 °F 24.8 °F 30.2 °F 93% 29.93 in 2.5 mi NNE 8.1 mph - 0.00 in Snow Light Snow
4:20 AM 32.0 °F 27.5 °F 30.2 °F 93% 29.93 in 3.0 mi NE 4.6 mph - 0.01 in Snow Light Snow
4:48 AM 30.2 °F 26.7 °F 30.2 °F 100% 29.94 in 8.0 mi NNE 3.5 mph - 0.01 in   Overcast
4:53 AM 32.0 °F 28.7 °F 30.0 °F 92% 29.95 in 9.0 mi NNE 3.5 mph - 0.01 in   Overcast
5:53 AM 32.0 °F 28.7 °F 28.0 °F 85% 29.96 in 10.0 mi NNW 3.5 mph - N/A   Overcast
6:08 AM 32.0 °F 25.6 °F 26.6 °F 80% 29.95 in 10.0 mi North 6.9 mph - N/A   Overcast
6:28 AM 30.2 °F 25.4 °F 26.6 °F 86% 29.95 in 7.0 mi NE 4.6 mph - 0.00 in Snow Light Snow
6:51 AM 30.2 °F 23.4 °F 26.6 °F 86% 29.95 in 2.5 mi North 6.9 mph - 0.00 in Snow Light Snow
6:53 AM 30.0 °F 23.2 °F 27.0 °F 88% 29.96 in 2.5 mi North 6.9 mph - 0.00 in Snow Light Snow
7:22 AM 30.2 °F 24.3 °F 26.6 °F 86% 29.95 in 9.0 mi North 5.8 mph - 0.00 in   Overcast
7:53 AM 30.0 °F 26.5 °F 27.0 °F 88% 29.96 in 10.0 mi NNE 3.5 mph - 0.00 in   Overcast
8:53 AM 30.9 °F 27.5 °F 23.0 °F 72% 29.96 in 10.0 mi North 3.5 mph - N/A   Overcast
9:53 AM 32.0 °F 25.6 °F 24.1 °F 73% 29.96 in 10.0 mi North 6.9 mph - N/A   Overcast
10:53 AM 33.1 °F 24.4 °F 21.0 °F 61% 29.94 in 10.0 mi North 11.5 mph - N/A   Overcast
11:53 AM 33.1 °F 24.9 °F 19.9 °F 59% 29.93 in 10.0 mi North 10.4 mph - N/A   Mostly Cloudy
12:53 PM 36.0 °F 29.0 °F 19.9 °F 52% 29.90 in 10.0 mi NNW 9.2 mph - N/A   Mostly Cloudy
1:53 PM 36.0 °F 29.0 °F 19.0 °F 50% 29.89 in 10.0 mi NNW 9.2 mph - N/A   Mostly Cloudy
2:53 PM 34.0 °F 28.0 °F 18.0 °F 52% 29.87 in 10.0 mi NNW 6.9 mph - N/A   Overcast
3:53 PM 33.1 °F 25.5 °F 18.0 °F 54% 29.87 in 10.0 mi NE 9.2 mph - N/A   Overcast
4:53 PM 32.0 °F 24.2 °F 18.0 °F 56% 29.86 in 10.0 mi NNW 9.2 mph - N/A   Overcast
5:53 PM 30.9 °F 22.8 °F 17.1 °F 57% 29.86 in 10.0 mi NNW 9.2 mph - N/A   Overcast
6:53 PM 30.9 °F 22.2 °F 16.0 °F 54% 29.85 in 10.0 mi North 10.4 mph 16.1 mph N/A   Overcast
7:53 PM 30.0 °F 22.4 °F 14.0 °F 51% 29.85 in 10.0 mi North 8.1 mph - N/A   Overcast
8:53 PM 28.9 °F 20.4 °F 14.0 °F 54% 29.83 in 10.0 mi North 9.2 mph - N/A   Overcast
9:53 PM 28.9 °F 20.4 °F 14.0 °F 54% 29.81 in 10.0 mi North 9.2 mph 19.6 mph N/A   Overcast
10:53 PM 28.9 °F 19.2 °F 14.0 °F 54% 29.78 in 10.0 mi NNW 11.5 mph 18.4 mph N/A   Overcast
11:53 PM 28.0 °F 19.3 °F 12.9 °F 53% 29.73 in 10.0 mi North 9.2 mph 17.3 mph N/A   Overcast